Location: Gro� Glienicke
(52.4675°N, 13.1079°E)
Time: 17:22:56
(UTC+00:00)

Cosmos 1110 Rocket - Pass Details

Date: 06 July 2020
Orbit: 752 x 782 km, 74.0° (Epoch: 13 August)

Event Time Altitude Azimuth Distance (km) Brightness Sun altitude
Rises 22:51:09 0° 335° (NNW) 3,251 8.7 -14.8°
Reaches altitude 10° 22:53:35 10° 340° (NNW) 2,325 7.7 -14.9°
Maximum altitude 22:58:48 60° 60° (ENE) 891 4.4 -14.9°
Enters shadow 23:03:11 15° 138° (SE) 2,014 5.7 -14.9°
